Regional Weather Roundup
Issued by NWS

Home | Current Version | Previous Version | Text Only | Print | Product List | Glossary Off
Versions: 1 2 3 4 5 6 7 8 9 10 11 12 13 14 15 16 17 18 19 20 21 22 23 24 25 26 27 28 29 30 31 32 33 34 35 36 37 38 39 40 41 42 43 44 45 46 47 48 49 50

000
ASUS43 KLSX 190759
RWRMO

WEATHER SUMMARY FOR MISSOURI
NATIONAL WEATHER SERVICE SPRINGFIELD MO
300 AM CDT SUN APR 19 2015

NOTE: "FAIR" INDICATES FEW OR NO CLOUDS BELOW 12,000 FEET WITH NO
       SIGNIFICANT WEATHER AND/OR OBSTRUCTIONS TO VISIBILITY.
       CURRENT SKY AND/OR WEATHER CONDITIONS ARE NOT AVAILABLE FOR
       CHILLICOTHE AND FARMINGTON.

MOZ001>031-035>038-043-044-053-054-190900-
...NORTHERN AND WESTERN MISSOURI...

CITY           SKY/WX    TMP DP  RH WIND       PRES   REMARKS
KANSAS CTY INT CLOUDY    58  57  97 CALM      29.76F FOG
KANSAS C DTWN  MOCLDY    59  58  96 CALM      29.75F FOG
LEE`S SUMMIT   CLOUDY    59  58  96 CALM      29.77F FOG
ST JOSEPH      LGT RAIN  58  58 100 SE7       29.77F FOG
CHILLICOTHE      N/A     59  57  93 CALM      29.77F
KIRKSVILLE     MOCLDY    58  56  93 SE6       29.78F

$$
MOZ066>068-077>081-088>096-101>105-190900-
...SOUTHWEST MISSOURI...

CITY           SKY/WX    TMP DP  RH WIND       PRES   REMARKS
SPRINGFIELD    PTCLDY    50  49  96 CALM      29.76F FOG
JOPLIN         CLOUDY    61  57  87 SW14G21   29.78F

$$
MOZ032>034-039>042-045>050-055>058-069>072-190900-
...CENTRAL MISSOURI...

CITY           SKY/WX    TMP DP  RH WIND       PRES   REMARKS
COLUMBIA       CLEAR     57  54  89 SE6       29.76F
JEFFERSON CITY CLEAR     55  53  93 CALM      29.76F
ROLLA          CLOUDY    58  55  90 CALM      29.74F
SEDALIA        FOG       56  54  93 CALM      29.77F VSB 3/4
WHITEMAN AFB   PTCLDY    57  57 100 SE3       29.75F FOG
OSAGE BEACH    MOCLDY    55  52  88 CALM      29.76F VSB 3/4

$$
MOZ051-052-059>065-190900-
...EAST CENTRAL MISSOURI...

CITY           SKY/WX    TMP DP  RH WIND       PRES   REMARKS
ST LOUIS INTL  MOCLDY    64  55  72 CALM      29.77F
SPIRIT OF STL  MOCLDY    58  55  90 CALM      29.75F
ST CHARLES     MOCLDY    62  54  74 E3        29.76F

$$
MOZ072>076-082>087-097>100-106>115-190900-
...SOUTH CENTRAL AND SOUTHEAST MISSOURI...

CITY           SKY/WX    TMP DP  RH WIND       PRES   REMARKS
CAPE GIRARDEAU LGT RAIN  65  62  90 E6        29.73F
FARMINGTON     CLOUDY    63  57  82 E7        29.78F
POPLAR BLUFF   LGT RAIN  64  62  93 N5        29.71F FOG
WEST PLAINS    RAIN      59  57  93 CALM      29.75F FOG

$$


USA.gov is the U.S. government's official web portal to all federal, state and local government web resources and services.